Watertown, SD

12:12 AM CST on February 25, 2017 (GMT -0600)
Watertown Municipal

Weather History for KATY - February, 2012

Change the Weather History Date:

Wednesday, February 29, 2012

  Actual Average Record
Temperature  
Mean Temperature 28 °F 23 °F  
Max Temperature 31 °F 32 °F 58 °F (2000)
Min Temperature 24 °F 13 °F -16 °F (1960)
Degree Days  
Heating Degree Days 37 42  
Month to date heating degree days 1205 1371  
Since 1 July heating degree days 5509 6453  
Cooling Degree Days 0 0  
Month to date cooling degree days 0 0  
Year to date cooling degree days 0 0  
Moisture  
Dew Point 26 °F    
Average Humidity 92    
Maximum Humidity 100    
Minimum Humidity 84    
Precipitation  
Precipitation 0.00 in 0.03 in 0.21 in (2012)
Month to date precipitation 0.57 0.56  
Year to date precipitation 0.96 1.08  
Snow  
Snow 0.00 in - - ()
Month to date snowfall 4.6  
Since 1 July snowfall 14.7  
Snow Depth 0.00 in    
Sea Level Pressure  
Sea Level Pressure 29.44 in    
Wind  
Wind Speed 19 mph (NNE)    
Max Wind Speed 30 mph    
Max Gust Speed 39 mph    
Visibility 4 miles    
Events Fog , Snow    
T = Trace of Precipitation, MM = Missing Value Source: NWS Daily Summary

Daily Weather History Graph

Daily Weather History Graph

Search for Another Location

Airport or City:

Trip Planner

Search our weather history database for the weather conditions in past years. The results will help you decide how hot, cold, wet, or windy it might be!

Date:

Astronomy

Feb. 29, 2012 Rise Set
Actual Time 7:07 AM CST 6:15 PM CST
Civil Twilight 6:37 AM CST 6:44 PM CST
Nautical Twilight 6:03 AM CST 7:18 PM CST
Astronomical Twilight 5:29 AM CST 7:52 PM CST
Moon 10:38 AM CST (2/29) 1:23 AM CST (2/29)
Length of Visible Light 12h 07m
Length of Day
11h 08m
Waxing Crescent, 47% of the Moon is Illuminated
Feb 29
Waxing Crescent
Feb 29
First Quarter
Mar 8
Full
Mar 14
Last Quarter
Mar 22
New

Hourly Weather History & Observations

Time (CST) Temp. Windchill Dew Point Humidity Pressure Visibility Wind Dir Wind Speed Gust Speed Precip Events Conditions
12:01 AM 30.2 °F 18.1 °F 28.4 °F 93% 29.38 in 3.0 mi East 18.4 mph 33.4 mph N/A Snow Light Snow
12:07 AM 30.2 °F 17.4 °F 28.4 °F 93% 29.37 in 1.8 mi East 20.7 mph 34.5 mph N/A Snow Light Snow
12:16 AM 28.4 °F 14.1 °F 28.4 °F 100% 29.36 in 1.2 mi East 24.2 mph 33.4 mph N/A Snow Light Snow
12:24 AM 30.2 °F 17.1 °F 28.4 °F 93% 29.35 in 1.0 mi East 21.9 mph 33.4 mph N/A Snow Light Snow
12:36 AM 30.2 °F 16.8 °F 28.4 °F 93% 29.33 in 1.0 mi ENE 23.0 mph 39.1 mph N/A Snow Light Snow
12:53 AM 30.0 °F 16.9 °F 28.0 °F 92% 29.37 in 1.2 mi East 21.9 mph 34.5 mph N/A Snow Light Snow
12:57 AM 30.2 °F 17.4 °F 28.4 °F 93% 29.31 in 2.0 mi ENE 20.7 mph 34.5 mph N/A Snow Light Snow
1:05 AM 30.2 °F 15.7 °F 28.4 °F 93% 29.30 in 2.5 mi ENE 27.6 mph 39.1 mph N/A Snow Light Snow
1:12 AM 30.2 °F 16.2 °F 28.4 °F 93% 29.29 in 3.0 mi ENE 25.3 mph 39.1 mph N/A Snow Light Snow
1:19 AM 30.2 °F 17.1 °F 28.4 °F 93% 29.29 in 4.0 mi East 21.9 mph 38.0 mph N/A   Overcast
1:37 AM 30.2 °F 17.1 °F 28.4 °F 93% 29.33 in 4.0 mi East 21.9 mph 36.8 mph N/A   Overcast
1:40 AM 30.2 °F 18.1 °F 28.4 °F 93% 29.33 in 3.0 mi East 18.4 mph 36.8 mph N/A Snow Light Snow
1:45 AM 30.2 °F 19.3 °F 28.4 °F 93% 29.34 in 1.8 mi East 15.0 mph 28.8 mph N/A Snow Light Snow
1:53 AM 30.0 °F 17.9 °F 28.0 °F 92% 29.38 in 1.2 mi East 18.4 mph 27.6 mph N/A Snow Light Snow
2:08 AM 30.2 °F 17.8 °F 28.4 °F 93% 29.30 in 0.8 mi ENE 19.6 mph 29.9 mph N/A Snow Light Snow
2:15 AM 30.2 °F 18.5 °F 28.4 °F 93% 29.30 in 1.0 mi ENE 17.3 mph 29.9 mph N/A Snow Light Snow
2:26 AM 30.2 °F 18.9 °F 28.4 °F 93% 29.29 in 0.5 mi ENE 16.1 mph 26.5 mph N/A Fog , Snow Snow
2:53 AM 28.9 °F 17.3 °F 28.0 °F 96% 29.34 in 1.0 mi ENE 16.1 mph 25.3 mph N/A Snow Light Snow
3:08 AM 28.4 °F 15.1 °F 26.6 °F 93% 29.27 in 2.0 mi NE 20.7 mph 29.9 mph N/A Snow Light Snow
3:18 AM 28.4 °F 15.1 °F 26.6 °F 93% 29.27 in 1.5 mi NE 20.7 mph 29.9 mph N/A Snow Light Snow
3:21 AM 28.4 °F 14.7 °F 26.6 °F 93% 29.26 in 1.2 mi NE 21.9 mph 28.8 mph N/A Snow Light Snow
3:34 AM 28.4 °F 15.4 °F 26.6 °F 93% 29.27 in 1.8 mi NE 19.6 mph - N/A   Overcast
3:41 AM 28.4 °F 14.7 °F 26.6 °F 93% 29.27 in 2.5 mi NE 21.9 mph - N/A Snow Light Snow
3:53 AM 28.0 °F 14.6 °F 27.0 °F 96% 29.32 in 2.5 mi NE 20.7 mph 26.5 mph N/A Snow Light Snow
4:19 AM 28.4 °F 16.2 °F 26.6 °F 93% 29.28 in 1.5 mi NE 17.3 mph - N/A Snow Light Snow
4:23 AM 28.4 °F 15.8 °F 26.6 °F 93% 29.28 in 1.0 mi NNE 18.4 mph - N/A Snow Light Snow
4:36 AM 28.4 °F 16.2 °F 26.6 °F 93% 29.30 in 1.0 mi NE 17.3 mph - N/A Snow Light Snow
4:53 AM 28.0 °F 14.6 °F 26.1 °F 92% 29.37 in 1.2 mi NNE 20.7 mph - N/A Snow Light Snow
5:09 AM 28.4 °F 14.4 °F 26.6 °F 93% 29.32 in 0.8 mi NNE 23.0 mph - N/A Snow Light Snow
5:23 AM 26.6 °F 12.0 °F 26.6 °F 100% 29.32 in 0.8 mi NNE 23.0 mph - N/A Snow Light Snow
5:29 AM 28.4 °F 14.1 °F 26.6 °F 93% 29.32 in 1.0 mi NNE 24.2 mph - N/A Snow Light Snow
5:39 AM 26.6 °F 11.7 °F 26.6 °F 100% 29.32 in 1.0 mi NNE 24.2 mph - N/A Snow Light Snow
5:53 AM 27.0 °F 12.2 °F 26.1 °F 96% 29.38 in 0.8 mi North 24.2 mph - N/A Snow Light Snow
6:30 AM 26.6 °F 11.4 °F 24.8 °F 93% 29.33 in 1.0 mi North 25.3 mph 31.1 mph N/A Snow Light Snow
6:39 AM 26.6 °F 11.1 °F 24.8 °F 93% 29.33 in 1.2 mi North 26.5 mph 33.4 mph N/A Snow Light Snow
6:53 AM 27.0 °F 11.3 °F 25.0 °F 92% 29.39 in 0.8 mi North 27.6 mph 35.7 mph N/A   Overcast
7:00 AM 26.6 °F 11.4 °F 24.8 °F 93% 29.34 in 0.8 mi North 25.3 mph 35.7 mph N/A   Overcast
7:12 AM 26.6 °F 10.8 °F 24.8 °F 93% 29.34 in 1.5 mi North 27.6 mph 33.4 mph N/A   Overcast
7:24 AM 26.6 °F 11.1 °F 24.8 °F 93% 29.35 in 1.8 mi North 26.5 mph 34.5 mph N/A   Overcast
7:37 AM 26.6 °F 10.8 °F 24.8 °F 93% 29.35 in 2.5 mi North 27.6 mph 34.5 mph N/A   Overcast
7:46 AM 26.6 °F 11.4 °F 24.8 °F 93% 29.35 in 3.0 mi North 25.3 mph - N/A   Overcast
7:53 AM 27.0 °F 11.9 °F 25.0 °F 92% 29.42 in 4.0 mi North 25.3 mph 33.4 mph N/A   Overcast
8:46 AM 28.4 °F 13.5 °F 24.8 °F 86% 29.38 in 1.8 mi North 26.5 mph - N/A   Overcast
8:53 AM 28.0 °F 13.3 °F 25.0 °F 88% 29.44 in 1.5 mi North 25.3 mph - N/A   Overcast
9:03 AM 28.4 °F 13.5 °F 24.8 °F 86% 29.38 in 2.0 mi North 26.5 mph 34.5 mph N/A   Overcast
9:15 AM 28.4 °F 13.8 °F 24.8 °F 86% 29.39 in 4.0 mi North 25.3 mph 35.7 mph N/A   Overcast
9:53 AM 28.4 °F 14.1 °F 24.8 °F 86% 29.41 in 7.0 mi North 24.2 mph - N/A   Overcast
10:49 AM 28.4 °F 14.7 °F 26.6 °F 93% 29.45 in 6.0 mi North 21.9 mph - N/A Snow Light Snow
10:53 AM 28.9 °F 15.4 °F 26.1 °F 89% 29.51 in 7.0 mi North 21.9 mph - N/A Snow Light Snow
11:01 AM 28.4 °F 14.4 °F 26.6 °F 93% 29.46 in 7.0 mi North 23.0 mph - N/A Snow Light Snow
11:35 AM 28.4 °F 14.4 °F 26.6 °F 93% 29.48 in 9.0 mi North 23.0 mph 29.9 mph N/A Snow Light Snow
11:53 AM 28.9 °F 15.1 °F 26.1 °F 89% 29.55 in 9.0 mi North 23.0 mph - N/A Snow Light Snow
12:00 PM 28.4 °F 14.7 °F 26.6 °F 93% 29.49 in 9.0 mi North 21.9 mph - N/A Snow Light Snow
12:53 PM 28.9 °F 15.4 °F 26.1 °F 89% 29.57 in 8.0 mi North 21.9 mph - N/A Snow Light Snow
1:53 PM 28.0 °F 13.6 °F 25.0 °F 88% 29.61 in 9.0 mi NNW 24.2 mph - N/A Snow Light Snow
2:14 PM 26.6 °F 12.7 °F 24.8 °F 93% 29.56 in 9.0 mi NNW 20.7 mph 29.9 mph 0.00 in Snow Light Snow
2:53 PM 27.0 °F 12.8 °F 24.1 °F 89% 29.65 in 9.0 mi NNW 21.9 mph - 0.00 in Snow Light Snow
3:53 PM 26.1 °F 12.7 °F 23.0 °F 88% 29.68 in 9.0 mi NNW 18.4 mph - 0.00 in Snow Light Snow
4:53 PM 25.0 °F 11.3 °F 23.0 °F 92% 29.71 in 3.0 mi NNW 18.4 mph - 0.00 in   Overcast
5:53 PM 25.0 °F 12.2 °F 23.0 °F 92% 29.75 in 6.0 mi NW 16.1 mph - 0.00 in   Overcast
6:53 PM 25.0 °F 14.2 °F 23.0 °F 92% 29.78 in 9.0 mi NNW 11.5 mph - 0.00 in Snow Light Snow
7:53 PM 25.0 °F 13.6 °F 23.0 °F 92% 29.80 in 9.0 mi NW 12.7 mph - 0.00 in Snow Light Snow
8:53 PM 24.1 °F 12.0 °F 23.0 °F 96% 29.81 in 6.0 mi NW 13.8 mph - 0.00 in Snow Light Snow
9:02 PM 24.8 °F 14.6 °F 23.0 °F 93% 29.75 in 5.0 mi WNW 10.4 mph - 0.00 in Snow Light Snow
9:43 PM 24.8 °F 16.1 °F 23.0 °F 93% 29.75 in 2.5 mi NW 8.1 mph - 0.00 in Snow Light Snow
9:53 PM 24.1 °F 15.2 °F 23.0 °F 96% 29.82 in 3.0 mi NW 8.1 mph - 0.00 in Snow Light Snow
10:53 PM 24.1 °F 15.2 °F 23.0 °F 96% 29.81 in 4.0 mi WNW 8.1 mph - 0.00 in Snow Light Snow
11:50 PM 24.8 °F 17.9 °F 23.0 °F 93% 29.76 in 9.0 mi West 5.8 mph - 0.00 in Snow Light Snow
11:53 PM 24.1 °F 18.2 °F 23.0 °F 96% 29.83 in 9.0 mi West 4.6 mph - 0.00 in Snow Light Snow